• în Republica Moldova
  • Lista ţărilor
  • Pe 7 zile
  • Temperatura apei
  • Hartă satelitară
  • Meteo pe hartă
  • Widget-uri
  • user-avatar
    Intrare

    Meteo pe oră la Ischgl

    Astăzi, 20 Octombrie, Vineri

    Timp Temperatura Precipitaţii Vânt Presiune Umiditate
    00:00 +2°C° 0 mm 2 m/s 574 mmHg 63%
    01:00 +1°C° 0 mm 3 m/s 574 mmHg 67%
    02:00 +1°C° 0 mm 3 m/s 574 mmHg 69%
    03:00 +1°C° 0 mm 2 m/s 574 mmHg 72%
    04:00 +1°C° 0 mm 2 m/s 574 mmHg 74%
    05:00 +1°C° 0 mm 2 m/s 574 mmHg 75%
    06:00 +1°C° 0 mm 2 m/s 574 mmHg 75%
    07:00 -1°C° 0 mm 2 m/s 574 mmHg 75%
    08:00 +3°C° 0 mm 2 m/s 575 mmHg 65%
    09:00 +6°C° 0 mm 1 m/s 577 mmHg 55%
    10:00 +9°C° 0 mm 1 m/s 578 mmHg 44%
    11:00 +9°C° 0 mm 1 m/s 578 mmHg 41%
    12:00 +10°C° 0 mm 1 m/s 579 mmHg 39%
    13:00 +11°C° 0 mm 1 m/s 579 mmHg 36%
    14:00 +10°C° 0 mm 1 m/s 579 mmHg 40%
    15:00 +9°C° 0 mm 1 m/s 578 mmHg 45%
    16:00 +9°C° 0 mm 1 m/s 578 mmHg 50%
    17:00 +7°C° 0 mm 1 m/s 577 mmHg 59%
    18:00 +4°C° 0 mm 1 m/s 576 mmHg 68%
    19:00 +1°C° 0 mm 0 m/s 575 mmHg 78%
    20:00 +2°C° 0 mm 1 m/s 575 mmHg 76%
    21:00 +2°C° 0 mm 1 m/s 575 mmHg 74%
    22:00 +2°C° 0 mm 1 m/s 576 mmHg 72%
    23:00 +2°C° 0 mm 1 m/s 576 mmHg 70%

    Mâine, 21 Octombrie, Sâmbătă

    Timp Temperatura Precipitaţii Vânt Presiune Umiditate
    00:00 +2°C° 0 mm 1 m/s 576 mmHg 69%
    01:00 +2°C° 0 mm 1 m/s 576 mmHg 67%
    02:00 +2°C° 0 mm 1 m/s 575 mmHg 67%
    03:00 +1°C° 0 mm 1 m/s 575 mmHg 67%
    04:00 +1°C° 0 mm 1 m/s 575 mmHg 66%
    05:00 +1°C° 0 mm 1 m/s 575 mmHg 65%
    06:00 +1°C° 0 mm 1 m/s 575 mmHg 64%
    07:00 +1°C° 0 mm 1 m/s 575 mmHg 63%
    08:00 +4°C° 0 mm 1 m/s 576 mmHg 56%
    09:00 +6°C° 0 mm 1 m/s 578 mmHg 50%
    10:00 +7°C° 0 mm 0 m/s 579 mmHg 44%
    11:00 +9°C° 0 mm 1 m/s 579 mmHg 42%
    12:00 +10°C° 0 mm 1 m/s 579 mmHg 41%
    13:00 +11°C° 0 mm 1 m/s 579 mmHg 40%
    14:00 +10°C° 0 mm 1 m/s 578 mmHg 46%
    15:00 +9°C° 0 mm 1 m/s 578 mmHg 52%
    16:00 +9°C° 0 mm 1 m/s 577 mmHg 57%
    17:00 +7°C° 0 mm 1 m/s 577 mmHg 65%
    18:00 +5°C° 0 mm 1 m/s 576 mmHg 72%
    19:00 +3°C° 0 mm 1 m/s 575 mmHg 79%
    20:00 +3°C° 0 mm 1 m/s 575 mmHg 81%
    21:00 +3°C° 0 mm 1 m/s 575 mmHg 84%
    22:00 +2°C° 0 mm 1 m/s 575 mmHg 86%
    23:00 +2°C° 0,3 mm 1 m/s 575 mmHg 89%

    Poimâine, 22 Octombrie, Duminică

    Timp Temperatura Precipitaţii Vânt Presiune Umiditate
    00:00 +2°C° 0,3 mm 1 m/s 575 mmHg 91%
    01:00 +1°C° 0,3 mm 1 m/s 575 mmHg 94%
    02:00 +1°C° 0,8 mm 1 m/s 574 mmHg 95%
    03:00 +1°C° 0,8 mm 1 m/s 574 mmHg 95%
    04:00 +1°C° 0,8 mm 1 m/s 574 mmHg 96%
    05:00 0°C° 1,1 mm 1 m/s 573 mmHg 96%
    06:00 -2°C° 1,1 mm 2 m/s 573 mmHg 95%
    07:00 -2°C° 1,1 mm 2 m/s 573 mmHg 95%
    08:00 -2°C° 1,2 mm 2 m/s 573 mmHg 95%
    09:00 -2°C° 1,2 mm 2 m/s 573 mmHg 94%
    10:00 -2°C° 1,2 mm 3 m/s 573 mmHg 94%
    11:00 -4°C° 1,3 mm 3 m/s 572 mmHg 93%
    12:00 -4°C° 1,3 mm 3 m/s 572 mmHg 93%
    13:00 -4°C° 1,3 mm 3 m/s 571 mmHg 93%
    14:00 -5°C° 0,6 mm 3 m/s 571 mmHg 92%
    15:00 -5°C° 0,6 mm 3 m/s 571 mmHg 92%
    16:00 -5°C° 0,6 mm 3 m/s 571 mmHg 91%
    17:00 -5°C° 0,3 mm 3 m/s 571 mmHg 92%
    18:00 -6°C° 0,3 mm 3 m/s 571 mmHg 93%
    19:00 -6°C° 0,3 mm 3 m/s 571 mmHg 94%
    20:00 -7°C° 0,6 mm 3 m/s 571 mmHg 95%
    21:00 -7°C° 0,6 mm 3 m/s 571 mmHg 95%
    22:00 -7°C° 0,6 mm 3 m/s 572 mmHg 95%
    23:00 -7°C° 0,3 mm 3 m/s 572 mmHg 95%

    23 Octombrie, Luni

    Timp Temperatura Precipitaţii Vânt Presiune Umiditate
    00:00 -8°C° 0,3 mm 3 m/s 572 mmHg 95%
    01:00 -7°C° 0,3 mm 2 m/s 572 mmHg 95%
    02:00 -7°C° 0,3 mm 2 m/s 571 mmHg 95%
    03:00 -7°C° 0,3 mm 2 m/s 571 mmHg 94%
    04:00 -7°C° 0,3 mm 2 m/s 571 mmHg 94%
    05:00 -7°C° 0,6 mm 2 m/s 571 mmHg 94%
    06:00 -7°C° 0,6 mm 2 m/s 571 mmHg 93%
    07:00 -7°C° 0,6 mm 2 m/s 571 mmHg 93%
    08:00 -6°C° 0,8 mm 2 m/s 572 mmHg 92%
    09:00 -6°C° 0,8 mm 2 m/s 572 mmHg 91%
    10:00 -5°C° 0,8 mm 2 m/s 572 mmHg 89%
    11:00 -5°C° 0,6 mm 2 m/s 572 mmHg 89%
    12:00 -4°C° 0,6 mm 2 m/s 572 mmHg 88%
    13:00 -4°C° 0,6 mm 2 m/s 573 mmHg 87%
    14:00 -4°C° 0,6 mm 2 m/s 573 mmHg 88%
    15:00 -4°C° 0,6 mm 2 m/s 573 mmHg 89%
    16:00 -4°C° 0,6 mm 2 m/s 573 mmHg 90%
    17:00 -5°C° 0,8 mm 2 m/s 573 mmHg 91%
    18:00 -5°C° 0,8 mm 2 m/s 573 mmHg 92%
    19:00 -5°C° 0,8 mm 2 m/s 573 mmHg 93%
    20:00 -5°C° 1 mm 2 m/s 573 mmHg 93%
    21:00 -5°C° 1 mm 2 m/s 573 mmHg 93%
    22:00 -5°C° 1 mm 2 m/s 573 mmHg 93%
    23:00 -5°C° 1,3 mm 2 m/s 573 mmHg 93%

    24 Octombrie, Marţi

    Timp Temperatura Precipitaţii Vânt Presiune Umiditate
    00:00 -5°C° 1,3 mm 2 m/s 573 mmHg 94%
    01:00 -5°C° 1,3 mm 2 m/s 573 mmHg 94%
    02:00 -5°C° 1,6 mm 2 m/s 573 mmHg 94%
    03:00 -4°C° 1,6 mm 2 m/s 573 mmHg 95%
    04:00 -4°C° 1,6 mm 2 m/s 573 mmHg 95%
    05:00 -4°C° 1,9 mm 2 m/s 573 mmHg 95%
    06:00 -4°C° 1,9 mm 2 m/s 574 mmHg 95%
    07:00 -3°C° 1,9 mm 2 m/s 574 mmHg 96%
    08:00 -3°C° 1,4 mm 2 m/s 574 mmHg 96%
    09:00 -2°C° 1,4 mm 2 m/s 575 mmHg 96%
    10:00 -2°C° 1,4 mm 2 m/s 575 mmHg 96%
    11:00 -1°C° 0,3 mm 2 m/s 576 mmHg 96%
    12:00 -1°C° 0,3 mm 2 m/s 576 mmHg 96%
    13:00 +1°C° 0,3 mm 2 m/s 576 mmHg 95%
    14:00 -1°C° 0,1 mm 2 m/s 576 mmHg 96%
    15:00 -1°C° 0,1 mm 2 m/s 576 mmHg 96%
    16:00 -1°C° 0,1 mm 2 m/s 576 mmHg 96%
    17:00 -2°C° 0 mm 2 m/s 576 mmHg 97%
    18:00 -2°C° 0 mm 2 m/s 576 mmHg 97%
    19:00 -3°C° 0 mm 2 m/s 576 mmHg 97%
    20:00 -4°C° 0 mm 2 m/s 576 mmHg 97%
    21:00 -4°C° 0 mm 2 m/s 576 mmHg 96%
    22:00 -5°C° 0 mm 2 m/s 576 mmHg 95%
    23:00 -5°C° 0 mm 2 m/s 576 mmHg 92%

    25 Octombrie, Miercuri

    Timp Temperatura Precipitaţii Vânt Presiune Umiditate
    00:00 -5°C° 0 mm 2 m/s 576 mmHg 88%
    01:00 -5°C° 0 mm 2 m/s 576 mmHg 84%
    02:00 -5°C° 0 mm 2 m/s 577 mmHg 81%
    03:00 -5°C° 0 mm 2 m/s 577 mmHg 78%
    04:00 -4°C° 0 mm 2 m/s 577 mmHg 75%
    05:00 -4°C° 0 mm 2 m/s 577 mmHg 73%
    06:00 -4°C° 0 mm 2 m/s 577 mmHg 72%
    07:00 -4°C° 0 mm 2 m/s 577 mmHg 70%
    08:00 0°C° 0 mm 1 m/s 578 mmHg 76%
    09:00 +2°C° 0 mm 1 m/s 579 mmHg 81%
    10:00 +4°C° 0 mm 1 m/s 580 mmHg 87%
    11:00 +5°C° 0 mm 1 m/s 580 mmHg 86%
    12:00 +5°C° 0 mm 1 m/s 581 mmHg 85%
    13:00 +5°C° 0 mm 0 m/s 581 mmHg 84%
    14:00 +6°C° 0 mm 1 m/s 581 mmHg 85%
    15:00 +5°C° 0 mm 1 m/s 580 mmHg 85%
    16:00 +5°C° 0 mm 1 m/s 580 mmHg 86%
    17:00 +3°C° 0 mm 1 m/s 580 mmHg 83%
    18:00 +2°C° 0 mm 1 m/s 579 mmHg 79%
    19:00 +1°C° 0 mm 1 m/s 579 mmHg 76%
    20:00 +1°C° 0 mm 1 m/s 579 mmHg 75%
    21:00 -1°C° 0 mm 2 m/s 579 mmHg 74%
    22:00 -1°C° 0 mm 2 m/s 579 mmHg 72%
    23:00 -1°C° 0 mm 2 m/s 579 mmHg 72%
    Arată mai mult